Location: Blankensee
(53.5126°N, 14.3055°E)
Time: 18:41:23
(UTC+00:00)

H-2A R/B - Pass Details

Date: 08 August 2020
Orbit: 578 x 654 km, 98.5° (Epoch: 20 September)

Event Time Altitude Azimuth Distance (km) Brightness Sun altitude
Rises 02:25:19 0° 165° (SSE) 2,803 5.1 -8.7°
Reaches altitude 10° 02:27:28 10° 167° (SSE) 1,901 4.3 -8.5°
Maximum altitude 02:31:34 80° 254° (WSW) 596 1.9 -8.0°
Drops below altitude 10° 02:35:42 10° 343° (NNW) 1,907 4.9 -7.5°
Sets 02:37:52 0° 344° (NNW) 2,813 5.8 -7.3°
